sat.trackr.live / text

‹ back to catalog

QIANFAN-68

NORAD 62798 · 2025-016P

PAYLOAD ACTIVE UNKNOWN

§ Identity

Operator
Country
PRC
Launch date
2025-01-23
Launch site
TAISC
Launch vehicle
Mass (kg)
RCS (m²)

External: N2YO · Heavens-Above · Gunter

§ Orbital elements

Epoch: 2026-09-22T20:39:14.538816Z

Period
106.59 min
Inclination
88.9670°
Eccentricity
0.0013491
Mean motion
13.51022179 rev/d
Perigee alt
1,058.5 km
Apogee alt
1,078.5 km
Semi-major
7,446.6 km
B*
6.6652e-5
RAAN
73.5892°
Arg perigee
239.1641°
Mean anomaly
120.8183°
Rev number
8,560

§ Raw data

QIANFAN-681 62798U 25016P   26265.86058494  .00000055  00000+0  66652-4 0  99992 62798  88.9670  73.5892 0013491 239.1641 120.8183 13.51022179 85603

JSON: /api/v1/satellites/62798 · /tle

For live sub-satellite position, see the globe view (requires WebGL).

§ Visibility from observer

Set your observer location to see the next 7 days of passes ≥ 10°. The values pass through the URL so the page stays shareable.

No JS? Fill the form by hand. The geolocation button needs JavaScript.